YAOGAN-26

Last updated on Thu Jul 03 2025 00:02:30 GMT+0000 (Coordinated Universal Time)

1 40362U 14088A 25183.58298301 .00009444 00000+0 29681-3 0 9990 2 40362 97.0639 190.8556 0004319 215.5328 144.5628 15.33174702583906
UTC large
Height (km)
Speed (km/s)
/
Latitude / Longitude
Inclination (degrees)
Orbital Period (minutes)
Azimuth
Elevation
Range (km)
Doppler Factor

Next 0 passes for location: London (51.5072 / 0.1276)

Sorry there are no passes over London.